Location: Gandikunta
(16.3784°N, 80.8378°E)
Time: 00:50:28
(UTC+00:00)

Delta 198 - Pass Details

Date: 19 May 2025
Orbit: 450 x 932 km, 24.8° (Epoch: 18 June)

Event Time Altitude Azimuth Distance (km) Brightness Sun altitude
Exits shadow 23:31:21 10° 250° (WSW) 2,652 6.1 -8.3°
Reaches altitude 10° 23:31:26 10° 250° (WSW) 2,625 6.1 -8.3°
Maximum altitude 23:37:55 89° 337° (NNW) 914 4.4 -6.8°
Drops below altitude 10° 23:44:04 10° 70° (ENE) 2,496 8.6 -5.5°
Sets 23:46:32 0° 70° (ENE) 3,375 10.3 -4.9°
